TimeEDT,TemperatureF,Dew PointF,Humidity,Sea Level PressureIn,VisibilityMPH,Wind Direction,Wind SpeedMPH,Gust SpeedMPH,PrecipitationIn,Events,Conditions,WindDirDegrees,DateUTC
12:15 AM,39.2,26.6,61,29.85,10.0,East,6.9,-,N/A,,Clear,90,2013-03-24 04:15:00
12:35 AM,41.0,23.0,49,29.84,10.0,East,10.4,-,N/A,,Clear,80,2013-03-24 04:35:00
12:55 AM,41.0,23.0,49,29.83,10.0,East,11.5,-,N/A,,Clear,90,2013-03-24 04:55:00
1:15 AM,41.0,23.0,49,29.83,10.0,East,10.4,-,N/A,,Clear,90,2013-03-24 05:15:00
1:35 AM,41.0,23.0,49,29.83,10.0,East,8.1,-,N/A,,Clear,90,2013-03-24 05:35:00
1:55 AM,41.0,23.0,49,29.84,10.0,East,8.1,-,N/A,,Clear,100,2013-03-24 05:55:00
2:15 AM,41.0,23.0,49,29.83,10.0,East,6.9,-,N/A,,Clear,100,2013-03-24 06:15:00
2:35 AM,41.0,23.0,49,29.84,10.0,East,6.9,-,N/A,,Clear,90,2013-03-24 06:35:00
2:55 AM,41.0,23.0,49,29.84,10.0,East,6.9,-,N/A,,Clear,90,2013-03-24 06:55:00
3:35 AM,41.0,23.0,49,29.81,10.0,East,10.4,-,N/A,,Clear,80,2013-03-24 07:35:00
3:55 AM,41.0,23.0,49,29.79,10.0,East,9.2,-,N/A,,Scattered Clouds,80,2013-03-24 07:55:00
4:15 AM,41.0,23.0,49,29.76,10.0,ENE,15.0,-,N/A,,Scattered Clouds,70,2013-03-24 08:15:00
4:35 AM,41.0,23.0,49,29.75,10.0,ENE,10.4,-,N/A,,Clear,70,2013-03-24 08:35:00
4:55 AM,41.0,23.0,49,29.74,10.0,ENE,11.5,-,N/A,,Mostly Cloudy,70,2013-03-24 08:55:00
5:15 AM,41.0,23.0,49,29.74,10.0,East,8.1,-,N/A,,Overcast,80,2013-03-24 09:15:00
5:35 AM,41.0,23.0,49,29.74,10.0,East,9.2,-,N/A,,Overcast,100,2013-03-24 09:35:00
5:55 AM,41.0,23.0,49,29.73,10.0,East,10.4,-,N/A,,Drizzle,100,2013-03-24 09:55:00
6:15 AM,39.2,26.6,61,29.72,10.0,East,8.1,-,N/A,Rain,Rain,90,2013-03-24 10:15:00
6:35 AM,39.2,26.6,61,29.71,10.0,East,8.1,-,N/A,,Drizzle,90,2013-03-24 10:35:00
6:55 AM,37.4,28.4,70,29.69,10.0,East,9.2,-,N/A,Rain,Light Rain,90,2013-03-24 10:55:00
7:15 AM,37.4,28.4,70,29.69,10.0,East,10.4,-,N/A,Rain,Light Rain,80,2013-03-24 11:15:00
7:35 AM,37.4,28.4,70,29.69,10.0,East,8.1,-,N/A,,Drizzle,80,2013-03-24 11:35:00
7:55 AM,37.4,28.4,70,29.68,10.0,East,10.4,-,N/A,Rain,Light Rain,90,2013-03-24 11:55:00
8:15 AM,35.6,30.2,81,29.67,5.0,East,10.4,-,N/A,Rain,Light Rain,90,2013-03-24 12:15:00
8:35 AM,35.6,30.2,81,29.66,7.0,East,10.4,-,N/A,Rain,Light Rain,90,2013-03-24 12:35:00
8:55 AM,35.6,32.0,87,29.66,7.0,East,11.5,-,N/A,Rain,Light Rain,90,2013-03-24 12:55:00
9:15 AM,35.6,32.0,87,29.64,7.0,East,9.2,-,N/A,Rain,Rain,80,2013-03-24 13:15:00
9:35 AM,35.6,32.0,87,29.64,7.0,East,6.9,-,N/A,Rain,Light Rain,80,2013-03-24 13:35:00
9:55 AM,35.6,32.0,87,29.64,4.0,ENE,8.1,-,N/A,Rain,Light Rain,70,2013-03-24 13:55:00
10:15 AM,35.6,32.0,87,29.63,5.0,ENE,10.4,-,N/A,Rain,Light Rain,70,2013-03-24 14:15:00
10:35 AM,35.6,32.0,87,29.63,7.0,ENE,10.4,-,N/A,Rain,Rain,60,2013-03-24 14:35:00
10:55 AM,35.6,32.0,87,29.63,4.0,NE,6.9,-,N/A,Rain,Light Rain,50,2013-03-24 14:55:00
11:15 AM,35.6,33.8,93,29.62,2.5,NE,5.8,-,N/A,Rain,Rain,50,2013-03-24 15:15:00
11:35 AM,35.6,32.0,87,29.61,2.0,ENE,9.2,-,N/A,Rain,Rain,70,2013-03-24 15:35:00
11:55 AM,35.6,33.8,93,29.60,2.5,ENE,9.2,-,N/A,Rain,Light Rain,60,2013-03-24 15:55:00
12:15 PM,35.6,33.8,93,29.60,5.0,ENE,10.4,-,N/A,Rain,Light Rain,70,2013-03-24 16:15:00
12:35 PM,35.6,33.8,93,29.61,2.5,ENE,9.2,-,N/A,Rain,Light Rain,70,2013-03-24 16:35:00
12:55 PM,35.6,33.8,93,29.59,3.0,East,8.1,-,N/A,Rain,Light Rain,80,2013-03-24 16:55:00
1:15 PM,35.6,33.8,93,29.58,7.0,East,8.1,-,N/A,Rain,Light Rain,80,2013-03-24 17:15:00
1:35 PM,35.6,33.8,93,29.56,5.0,East,9.2,-,N/A,Rain,Rain,90,2013-03-24 17:35:00
1:55 PM,35.6,33.8,93,29.54,4.0,East,10.4,-,N/A,,Drizzle,90,2013-03-24 17:55:00
2:15 PM,35.6,35.6,100,29.53,2.5,East,12.7,-,N/A,Rain,Rain,90,2013-03-24 18:15:00
2:35 PM,35.6,35.6,100,29.50,7.0,East,10.4,16.1,N/A,,Overcast,100,2013-03-24 18:35:00
2:55 PM,37.4,35.6,93,29.47,7.0,East,11.5,24.2,N/A,,Overcast,100,2013-03-24 18:55:00
3:15 PM,37.4,35.6,93,29.46,7.0,East,10.4,18.4,N/A,,Overcast,100,2013-03-24 19:15:00
3:35 PM,37.4,35.6,93,29.45,10.0,East,12.7,20.7,N/A,,Overcast,100,2013-03-24 19:35:00
3:55 PM,37.4,35.6,93,29.47,7.0,East,9.2,17.3,N/A,,Overcast,100,2013-03-24 19:55:00
4:15 PM,37.4,35.6,93,29.45,5.0,East,9.2,-,N/A,,Overcast,100,2013-03-24 20:15:00
4:35 PM,37.4,35.6,93,29.45,4.0,East,9.2,-,N/A,,Overcast,90,2013-03-24 20:35:00
4:55 PM,37.4,35.6,93,29.44,3.0,East,10.4,-,N/A,,Overcast,90,2013-03-24 20:55:00
5:15 PM,35.6,35.6,100,29.41,1.5,East,11.5,-,N/A,Rain,Light Rain,90,2013-03-24 21:15:00
5:35 PM,35.6,35.6,100,29.40,1.2,East,11.5,-,N/A,Rain,Light Rain,90,2013-03-24 21:35:00
5:55 PM,35.6,35.6,100,29.39,1.5,East,12.7,17.3,N/A,Rain,Rain,90,2013-03-24 21:55:00
6:15 PM,35.6,35.6,100,29.41,2.5,East,8.1,-,N/A,Rain,Rain,90,2013-03-24 22:15:00
6:35 PM,35.6,35.6,100,29.42,1.8,ENE,6.9,-,N/A,Rain,Light Rain,60,2013-03-24 22:35:00
6:55 PM,35.6,35.6,100,29.41,2.0,ENE,6.9,-,N/A,Rain,Rain,70,2013-03-24 22:55:00
7:15 PM,35.6,35.6,100,29.37,2.0,ENE,16.1,19.6,N/A,,Overcast,70,2013-03-24 23:15:00
7:35 PM,35.6,35.6,100,29.41,3.0,East,6.9,-,N/A,Rain,Rain,90,2013-03-24 23:35:00
7:55 PM,35.6,35.6,100,29.46,2.5,WNW,6.9,-,N/A,Rain,Rain,300,2013-03-24 23:55:00
8:15 PM,35.6,35.6,100,29.45,3.0,Calm,Calm,-,N/A,Rain,Rain,0,2013-03-25 00:15:00
8:35 PM,35.6,35.6,100,29.43,7.0,East,3.5,-,N/A,Rain,Light Rain,90,2013-03-25 00:35:00
8:55 PM,35.6,35.6,100,29.44,10.0,Calm,Calm,-,N/A,,Overcast,0,2013-03-25 00:55:00
9:15 PM,35.6,35.6,100,29.45,10.0,Calm,Calm,-,N/A,,Overcast,0,2013-03-25 01:15:00
9:35 PM,35.6,35.6,100,29.45,10.0,Calm,Calm,-,N/A,,Overcast,0,2013-03-25 01:35:00
9:55 PM,35.6,35.6,100,29.46,10.0,SSW,6.9,-,N/A,,Overcast,210,2013-03-25 01:55:00
10:15 PM,35.6,35.6,100,29.46,7.0,SW,6.9,-,N/A,,Overcast,230,2013-03-25 02:15:00
10:35 PM,35.6,35.6,100,29.46,7.0,WSW,5.8,-,N/A,Rain,Rain,240,2013-03-25 02:35:00
10:55 PM,37.4,37.4,100,29.46,5.0,WSW,5.8,-,N/A,Rain,Light Rain,240,2013-03-25 02:55:00
11:15 PM,37.4,37.4,100,29.46,10.0,West,11.5,16.1,N/A,Rain,Rain,260,2013-03-25 03:15:00
11:35 PM,37.4,37.4,100,29.46,10.0,West,11.5,19.6,N/A,Rain,Light Rain,270,2013-03-25 03:35:00
11:55 PM,37.4,37.4,100,29.46,10.0,West,13.8,21.9,N/A,Rain,Rain,270,2013-03-25 03:55:00